Regional Weather Roundup
Issued by NWS

Home | Current Version | Previous Version | Text Only | Print | Product List | Glossary Off
Versions: 1 2 3 4 5 6 7 8 9 10 11 12 13 14 15 16 17 18 19 20 21 22 23 24 25 26 27 28 29 30 31 32 33 34 35 36 37 38 39 40 41 42 43 44 45 46 47 48 49 50

000
ASUS43 KMKX 042111
RWRWI

WISCONSIN REGIONAL WEATHER ROUNDUP
NATIONAL WEATHER SERVICE MILWAUKEE/SULLIVAN WI
400 PM CDT FRI SEP 04 2015

NOTE: "FAIR" INDICATES FEW OR NO CLOUDS BELOW 12,000 FEET WITH NO
SIGNIFICANT WEATHER AND/OR OBSTRUCTIONS TO VISIBILITY.

WIZ001-002-006>008-014>016-023>028-042200-
NORTHWEST WISCONSIN

CITY           SKY/WX    TMP DP  RH WIND       PRES   REMARKS
SUPERIOR ARPT  FAIR      66  61  82 E16       29.96F
ASHLAND        FAIR      76  68  76 N8        29.97F
HAYWARD        FAIR      83  69  62 S12       29.98F HX  86
SIREN          FAIR      86  71  60 SE8       29.93F HX  91
CUMBERLAND     FAIR      81  70  69 SE12      29.97F HX  84
RICE LAKE      FAIR      81  70  68 SE10      29.98F HX  85
CHETEK         FAIR      83  73  71 S6        29.97F HX  88
LADYSMITH      FAIR      84  66  55 SE9       30.01F HX  86
EAU CLAIRE     FAIR      85  71  63 SE10      29.96F HX  90
MENOMONIE      FAIR      86  71  60 SE8       29.96F HX  91
NEW RICHMOND   FAIR      85  71  62 SE10G18   29.93F HX  89
OSCEOLA        FAIR      85  71  62 SE16      29.94F HX  91
$$

WIZ003>005-009-010-017-018-042200-
NORTH CENTRAL WISCONSIN

CITY           SKY/WX    TMP DP  RH WIND       PRES   REMARKS
MANITOWISH WTR FAIR      82  65  56 SE5       30.04S HX  84
ARBOR VITAE    FAIR      82  65  55 SE7       30.04S HX  84
WOODRUFF       FAIR      82  65  55 SE7       30.04S HX  84
RHINELANDER    FAIR      82  63  52 E7        30.05F HX  83
EAGLE RIVER    FAIR      82  60  47 S9        30.04F HX  82
LAND O LAKES   FAIR      83  61  48 SE12      30.06S HX  83
PHILLIPS       FAIR      82  66  58 SE8       30.02F HX  84
TOMAHAWK       FAIR      82  64  55 S3        30.04S HX  83
MEDFORD        FAIR      78  67  69 E8        30.02F HX  80
MERRILL        FAIR      81  67  63 SE6       30.04F HX  83
$$

WIZ029-030-035-036-043>047-042200-
CENTRAL WISCONSIN

CITY           SKY/WX    TMP DP  RH WIND       PRES   REMARKS
WAUSAU         PTSUNNY   82  66  58 E7        30.02F HX  84
MOSINEE        MOSUNNY   79  66  65 SE5       30.04F HX  81
MARSHFIELD     FAIR      81  64  56 E8        30.02F HX  82
STEVENS POINT  FAIR      76  66  70 E5        30.04S
WAUPACA        FAIR      80  68  66 CALM      30.03F HX  82
WAUTOMA        FAIR      80  67  64 CALM      30.03F HX  82
WISC RAPIDS    PTSUNNY   82  65  56 SE7       30.03F HX  84
CAMP DOUGLAS   FAIR      83  75  78 SE6       29.99F HX  90
$$

WIZ011>013-019>022-031-037>040-048>050-042200-
NORTHEAST WISCONSIN

CITY           SKY/WX    TMP DP  RH WIND       PRES   REMARKS
ANTIGO         FAIR      80  66  61 E7        30.05F HX  82
SHAWANO        NOT AVBL
OCONTO         FAIR      74  68  81 E7        30.04S
STURGEON BAY   CLOUDY    73  64  73 CALM      30.06F
GREEN BAY      FAIR      77  67  71 NE8       30.04S
MANITOWOC      CLOUDY    72  67  84 MISG      30.04F
APPLETON       PTSUNNY   75  63  64 VRB5      30.02F
CLINTONVILLE   FAIR      79  66  65 CALM      30.02F HX  81
OSHKOSH        PTSUNNY   74  65  73 E6        30.04F
$$

WIZ032>034-041-042-053>061-042200-
SOUTHWEST WISCONSIN

CITY           SKY/WX    TMP DP  RH WIND       PRES   REMARKS
LA CROSSE      PTSUNNY   86  71  60 SE7       29.94F HX  91
SPARTA         FAIR      86  69  57 SE8       29.98F HX  90
VIROQUA        FAIR      86  70  60 SE3       30.00S HX  90
BOSCOBEL       FAIR      89  71  55 CALM      29.96F HX  95
PRAIRIE DU CHI FAIR      88  67  50 SE7       29.95F HX  91
PLATTEVILLE    FAIR      87  72  62 S6        29.99F HX  93
$$

WIZ056-057-062-063-064-067-068-042200-
SOUTH CENTRAL WISCONSIN

CITY           SKY/WX    TMP DP  RH WIND       PRES   REMARKS
REEDSBURG      FAIR      84  72  68 E5        29.99F HX  89
BARABOO/DELLS  FAIR      83  68  61 E7        30.01F HX  85
LONE ROCK      FAIR      87  71  58 S5        29.98F HX  93
MINERAL POINT  FAIR      88  70  55 CALM      30.01S HX  92
MADISON        FAIR      84  71  65 E7        30.00F HX  89
MIDDLETON      CLOUDY    86  70  57 SE6       30.01S HX  91
WATERTOWN      PTSUNNY   81  69  68 CALM      30.01F HX  84
MONROE         PTSUNNY   86  68  54 CALM      30.00F HX  89
JANESVILLE     PTSUNNY   86  72  62 CALM      29.99F HX  92
$$

WIZ051-052-058>065-066-070>072-042200-
SOUTHEAST WISCONSIN

CITY           SKY/WX    TMP DP  RH WIND       PRES   REMARKS
MILWAUKEE      PTSUNNY   71  65  81 NE9       30.02F
WAUKESHA       MOSUNNY   79  64  61 CALM      30.03F HX  81
MILWAUKEE/TIMM NOT AVBL
RACINE         FAIR      74  66  76 NE8       30.05S
BURLINGTON     FAIR      80  67  64 NE6       30.01F HX  83
KENOSHA        FAIR      75  66  73 E9        30.03F
FOND DU LAC    CLOUDY    75  66  73 NE8       30.04F
SHEBOYGAN      CLOUDY    76  67  73 N5        30.03F
WEST BEND      FAIR      72  64  78 CALM      30.03F
JUNEAU         FAIR      80  68  66 E6        30.03F HX  83
$$

LSZ147-162-042200-
LAKE SUPERIOR

STATION/POSITION TIME  TEMP    WIND        PRES    WAVE
                       AIR SEA DIR/SP/G            HT/PER
                 (UTC) (F)     (DEG/KT/KT) (MB)    (FT/S)
W MID LAKE BUOY  2050   61 58   40/ 10/ 10 1016.2F   1
DEVILS ISLAND    2100   61      70/ 11/ 12 1015.6F
PORT WING        2000   57      30/ 18/ 21 1014.9F
SAXON HARBOR     2040   69     310/  4/  5 1014.6F
$$

LMZ867-665-643>646-042200-
LAKE MICHIGAN

STATION/POSITION TIME  TEMP    WIND        PRES    WAVE
                       AIR SEA DIR/SP/G            HT/PER
                 (UTC) (F)     (DEG/KT/KT) (MB)    (FT/S)
CHAMBERS ISLAND  2000   67      20/  9/ 10 1017.6F
S GREEN BAY BUOY 2000   68 67   50/ 12/ 16 1018.6
N MID LAKE BUOY  2050   68 67   20/ 10/ 10 1017.2F   1/ 3
NORTHPORT PIER   2000   69      70/  9/ 11 1017.6S
SISTER BAY       2041   80     160/  9/ 12   N/A
ALGOMA LAKESHORE 2014           80/ 11/ 12   N/A
KEWAUNEE LAKESHO 2000   65      30/  3/  4 1016.8R
SHEBOYGAN LAKESH 2100   64      60/  7/  7 1017.1F
PORT WASHINGTON  2000   65      40/  4/  5 1017.9R
ATWATER BUOY     2100   62 61  300/  2/  4 1018.2F
MILWAUKEE LAKESH 2010   63      30/ 11/ 12   N/A
S MID LAKE BUOY  2050   69 71  320/  6/  8 1016.4S   1
KENOSHA   LAKESH 2100   65      60/  7/  7 1016.3F
$$

TC  - TEMPERATURE IN CELSIUS
VSB - VISIBILITY IN STATUTE MILES
WCI - WIND CHILL INDEX
HX  - HEAT INDEX




USA.gov is the U.S. government's official web portal to all federal, state and local government web resources and services.